Location: ?????????
(55.6553°N, 38.9075°E)
Time: 04:00:56
(UTC+00:00)

ADEOS II - Pass Details

Date: 18 October 2019
Orbit: 800 x 800 km, 98.5° (Epoch: 11 November)

Event Time Altitude Azimuth Distance (km) Brightness Sun altitude
Rises 02:41:02 0° 10° (N) 3,325 5.4 -11.8°
Reaches altitude 10° 02:44:30 10° 347° (NNW) 2,390 4.4 -11.4°
Maximum altitude 02:47:06 14° 317° (NW) 2,117 3.9 -11.0°
Enters shadow 02:49:01 12° 294° (WNW) 2,267 3.9 -10.7°
